Location: *
(43.9900°N, 3.4811°E)
Time: 13:57:32
(UTC+00:00)

Nadezhda 1 Rocket - Pass Details

Date: 25 August 2019
Orbit: 941 x 1006 km, 83.0° (Epoch: 19 September)

Event Time Altitude Azimuth Distance (km) Brightness Sun altitude
Exits shadow 21:59:10 79° 263° (W) 982 3.9 -30.1°
Maximum altitude 21:59:17 79° 278° (W) 981 3.9 -30.1°
Drops below altitude 10° 22:05:26 10° 6° (N) 2,682 6.9 -30.6°
Sets 22:07:55 0° 7° (N) 3,625 7.7 -30.8°
